[[{"header":{"parameterUnit":"m.s-1","parameterCategory":2,"la1":30.2991,"la2":30.254,"lo1":-89.0895,"lo2":-89.0444,"dy":0.0017,"dx":0.0017,"nx":28,"ny":28,"refTime":"2024-05-22T03:00:00:Z","depth":"0","parameterNumber":2,"parameterNumberName":"U-component_of_CURRENTS"},"data":[0,0,0,0,0,0,0,0,0,0,0,0,0,0,0,0,0,0,0,0,0,0,0,0,0,0,0,0,0,0,0,0,0,0,0,0,0,0,0,0,0,0,0,0,0,0,0,0,0,0,0,0,0,0,0,0,0,0,-0.2628,-0.2628,0,-0.2644,-0.2644,-0.2644,-0.262,-0.2619,-0.2619,-0.2618,-0.258,-0.258,-0.2579,0,0,0,0,0,0,0,0,0,0,0,0,0,-0.2565,-0.2566,-0.2628,-0.2628,-0.2629,-0.2644,-0.2644,-0.2644,-0.262,-0.2619,-0.2618,-0.2618,-0.258,-0.258,-0.2579,0,0,0,0,0,0,0,0,0,0,0,0,0,-0.2586,-0.2567,-0.2628,-0.262,-0.262,-0.2644,-0.2644,-0.2644,-0.262,-0.2619,-0.2618,-0.2617,-0.258,-0.258,-0.2579,-0.2595,0,0,-0.2577,-0.2577,0,0,0,0,0,0,0,0,-0.2585,-0.2588,-0.2621,-0.2621,-0.262,-0.2631,-0.2608,-0.2625,-0.262,-0.2618,-0.2618,-0.2617,-0.2594,-0.2592,-0.2595,-0.2593,-0.2591,-0.2577,-0.2577,-0.2577,-0.2577,0,0,0,0,0,0,0,-0.2583,-0.2587,-0.2632,-0.2621,-0.2621,-0.2612,-0.2614,-0.2611,-0.2609,-0.2618,-0.2617,-0.2622,-0.2593,-0.2596,-0.2594,-0.2591,-0.2577,-0.2577,-0.2576,-0.2576,-0.2613,-0.2615,0,0,0,0,0,0,-0.2588,-0.2586,-0.2631,-0.2633,-0.2602,-0.2614,-0.2616,-0.2627,-0.261,-0.2607,-0.2623,-0.2621,-0.2598,-0.2595,-0.2593,-0.2616,-0.2577,-0.2576,-0.2576,-0.2612,-0.2614,-0.2615,0,0,0,0,0,0,-0.2586,-0.2592,-0.2631,-0.2611,-0.2615,-0.2617,-0.2628,-0.2627,-0.2626,-0.2615,-0.261,-0.2622,-0.2597,-0.2593,-0.2595,-0.2613,-0.2576,-0.2575,-0.261,-0.2612,-0.2614,-0.2658,0,0,0,0,0,0,-0.2585,-0.2591,-0.2595,-0.2611,-0.2617,-0.2649,-0.263,-0.2629,-0.2632,-0.2629,-0.2612,-0.2608,-0.2596,-0.2596,-0.2594,-0.2612,-0.2575,-0.2609,-0.2611,-0.2614,-0.2655,-0.2661,-0.2666,0,0,0,0,0,-0.2582,-0.2594,-0.2595,-0.26,-0.2624,-0.265,-0.2652,-0.2648,-0.2633,-0.264,-0.2629,-0.2608,-0.2611,-0.2596,-0.2594,-0.2612,-0.2607,-0.2611,-0.2613,-0.2652,-0.266,-0.2666,0,0,0,0,0,0,-0.2563,-0.2593,-0.2595,-0.2613,-0.2632,-0.2647,-0.2649,-0.265,-0.2648,-0.2638,-0.2621,-0.2617,-0.2629,-0.2617,-0.2602,-0.2633,-0.2608,-0.2611,-0.2638,-0.2645,-0.2651,-0.2651,-0.2574,0,0,0,0,0,-0.2564,-0.2578,-0.2608,-0.2618,-0.2629,-0.2639,-0.2646,-0.2649,-0.2653,-0.265,-0.2642,-0.2636,-0.2643,-0.2639,-0.2642,-0.2653,-0.2623,-0.2666,-0.2672,-0.2677,-0.2677,-0.2665,-0.2669,-0.2625,-0.2625,-0.2625,0,0,-0.2557,-0.2575,-0.2581,-0.2615,-0.2623,-0.2654,-0.264,-0.2655,-0.2677,-0.2647,-0.266,-0.2656,-0.2652,-0.267,-0.2674,-0.2658,-0.267,-0.2681,-0.2685,-0.2682,-0.2668,-0.2672,-0.2676,-0.2627,-0.2627,-0.2626,0,0,-0.256,-0.2569,-0.2588,-0.2613,-0.2639,-0.2653,-0.2661,-0.2682,-0.2685,-0.2705,-0.2694,-0.2698,-0.2703,-0.2708,-0.271,-0.2751,-0.2706,-0.2755,-0.2778,-0.2766,-0.2769,-0.2772,-0.2717,-0.2714,-0.2753,-0.2754,-0.2754,0,-0.255,-0.258,-0.2596,-0.2628,-0.2647,-0.2657,-0.2688,-0.2704,-0.2722,-0.2728,-0.2713,-0.2728,-0.2723,-0.2748,-0.2766,-0.2763,-0.2733,-0.2749,-0.2772,-0.2774,-0.2776,-0.2719,-0.2715,-0.2756,-0.2756,-0.2755,-0.2755,0,-0.2576,-0.2602,-0.2613,-0.2659,-0.2685,-0.2708,-0.2744,-0.2761,-0.2762,-0.2774,-0.279,-0.2785,-0.279,-0.2798,-0.2794,-0.2814,-0.2779,-0.2782,-0.2749,-0.2782,-0.2721,-0.2716,-0.276,-0.2759,-0.2758,-0.2757,0,0,-0.2541,-0.2618,-0.2619,-0.2647,-0.2702,-0.2724,-0.2768,-0.2806,-0.2822,-0.2834,-0.2846,-0.2868,-0.2852,-0.2855,-0.2849,-0.2842,-0.2824,-0.2819,-0.2817,-0.2755,-0.2762,-0.2658,-0.2642,-0.283,-0.283,-0.283,-0.2706,0,-0.255,-0.261,-0.2651,-0.2702,-0.2734,-0.2771,-0.2812,-0.2847,-0.2861,-0.2877,-0.2875,-0.2885,-0.2879,-0.2874,-0.2872,-0.2846,-0.2818,-0.2855,-0.2748,-0.2744,-0.264,-0.2636,-0.2536,-0.241,-0.2701,-0.27,-0.2699,0,-0.2554,-0.2596,-0.2651,-0.2724,-0.274,-0.2775,-0.2824,-0.2863,-0.2899,-0.2908,-0.2917,-0.2912,-0.2915,-0.2898,-0.2852,-0.2875,-0.2821,-0.2788,-0.2783,-0.2667,-0.2631,-0.243,-0.239,-0.2374,-0.2691,-0.2692,-0.2692,0,-0.2505,-0.2589,-0.2628,-0.2655,-0.2744,-0.2768,-0.2807,-0.2859,-0.2882,-0.2917,-0.2915,-0.2929,-0.2906,-0.2877,-0.2808,-0.2833,-0.2728,-0.2752,-0.2596,-0.2586,-0.247,-0.245,-0.2394,-0.2701,-0.2701,-0.2701,-0.2702,0,-0.2491,-0.2516,-0.2606,-0.2626,-0.2663,-0.2738,-0.2769,-0.2814,-0.2863,-0.2875,-0.2914,-0.2897,-0.2901,-0.2843,-0.2799,-0.2661,-0.2712,-0.2585,-0.255,-0.2479,-0.2462,-0.2418,-0.2449,-0.2696,-0.2698,-0.2698,-0.2699,0,-0.2417,-0.2486,-0.2526,-0.2615,-0.2639,-0.2657,-0.2733,-0.2759,-0.2814,-0.2825,-0.2832,-0.2857,-0.2781,-0.274,-0.2666,-0.2613,-0.2466,-0.2452,-0.2343,-0.2299,-0.2156,-0.2193,-0.209,-0.2035,-0.2273,-0.227,-0.2267,0,-0.2383,-0.2398,-0.2483,-0.25,-0.2534,-0.2579,-0.2614,-0.2709,-0.2737,-0.278,-0.2773,-0.2723,-0.2646,-0.2489,-0.2393,-0.226,-0.2295,-0.2109,-0.215,-0.2116,-0.2134,-0.2176,-0.2141,-0.2002,-0.1997,-0.1994,-0.1991,0,-0.2292,-0.232,-0.2352,-0.2392,-0.2429,-0.2462,-0.2518,-0.2532,-0.2631,-0.2631,-0.2589,-0.2528,-0.2397,-0.2221,-0.2075,-0.2002,-0.2068,-0.2023,-0.2031,-0.1943,-0.1944,-0.1883,-0.2099,-0.1956,-0.196,-0.1962,-0.1964,-0.1965,-0.2194,-0.2191,-0.2231,-0.2251,-0.2295,-0.2295,-0.2264,-0.2337,-0.2328,-0.2293,-0.2345,-0.2206,-0.2121,-0.189,-0.1815,-0.1679,-0.1767,-0.1657,-0.1707,-0.1754,-0.1699,-0.1813,-0.1615,-0.1617,-0.1618,-0.1619,-0.162,0,-0.2057,-0.207,-0.2088,-0.2099,-0.2071,-0.2143,-0.2161,-0.2097,-0.2026,-0.2034,-0.1959,-0.1818,-0.1665,-0.1614,-0.1485,-0.1406,-0.1406,-0.1394,-0.1458,-0.144,-0.1556,-0.1544,-0.1271,-0.1271,-0.1271,-0.1271,-0.1271,-0.1271,-0.1983,-0.1948,-0.196,-0.1856,-0.1857,-0.1756,-0.1718,-0.1659,-0.162,-0.1468,-0.1404,-0.1357,-0.1381,-0.1483,-0.1384,-0.1313,-0.1314,-0.1255,-0.1303,-0.1428,-0.1458,-0.1488,-0.1483,-0.1202,-0.1202,-0.1134,-0.1134,-0.1134]},{"header":{"parameterUnit":"m.s-1","parameterCategory":2,"la1":30.2991,"la2":30.254,"lo1":-89.0895,"lo2":-89.0444,"dy":0.0017,"dx":0.0017,"nx":28,"ny":28,"refTime":"2024-05-22T03:00:00:Z","depth":"0","parameterNumber":3,"parameterNumberName":"V-component_of_CURRENTS"},"data":[0,0,0,0,0,0,0,0,0,0,0,0,0,0,0,0,0,0,0,0,0,0,0,0,0,0,0,0,0,0,0,0,0,0,0,0,0,0,0,0,0,0,0,0,0,0,0,0,0,0,0,0,0,0,0,0,0,0,-0.0196,-0.0196,0,-0.0114,-0.0113,-0.0112,-0.0045,-0.0044,-0.0044,-0.0043,0.0092,0.0095,0.0098,0,0,0,0,0,0,0,0,0,0,0,0,0,-0.0244,-0.0243,-0.0196,-0.0196,-0.0195,-0.0114,-0.0113,-0.0112,-0.0045,-0.0044,-0.0044,-0.0043,0.0091,0.0094,0.0098,0,0,0,0,0,0,0,0,0,0,0,0,0,-0.0197,-0.0243,-0.0197,-0.0153,-0.0148,-0.0115,-0.0113,-0.0111,-0.0045,-0.0044,-0.0043,-0.0043,0.009,0.0094,0.0099,0.0111,0,0,0.0113,0.0115,0,0,0,0,0,0,0,0,-0.02,-0.0195,-0.016,-0.0156,-0.0151,-0.009,-0.008,-0.0035,-0.0045,-0.0082,-0.0043,-0.0042,0.0034,0.0043,0.0059,0.0118,0.0123,0.0113,0.0116,0.0118,0.0119,0,0,0,0,0,0,0,-0.0203,-0.0198,-0.0162,-0.0159,-0.0154,-0.012,-0.0113,-0.0071,-0.0027,-0.0079,-0.0074,-0.0068,0.0037,0.0054,0.0063,0.0125,0.0113,0.0117,0.012,0.0122,0.0217,0.0216,0,0,0,0,0,0,-0.0221,-0.0202,-0.0165,-0.016,-0.0176,-0.012,-0.0112,-0.0109,-0.0029,-0.0017,-0.0069,-0.0066,0.0046,0.0057,0.0068,0.0094,0.0118,0.0122,0.0125,0.0217,0.0216,0.0216,0,0,0,0,0,0,-0.0222,-0.0218,-0.0168,-0.018,-0.0171,-0.0121,-0.0118,-0.0108,-0.0091,-0.0022,-0.0008,-0.0063,0.0047,0.0061,0.0102,0.01,0.0124,0.0129,0.0217,0.0217,0.0216,0.0143,0,0,0,0,0,0,-0.0224,-0.0219,-0.0227,-0.0181,-0.0171,-0.0158,-0.0118,-0.0107,-0.009,-0.0084,-0.0012,0.0001,0.0049,0.0094,0.0106,0.0107,0.0132,0.0217,0.0217,0.0216,0.0146,0.014,0.0135,0,0,0,0,0,-0.0226,-0.0243,-0.0228,-0.0223,-0.0182,-0.0158,-0.015,-0.011,-0.0091,-0.009,-0.0039,-0.0001,0.01,0.0098,0.0112,0.0113,0.0218,0.0217,0.0217,0.0148,0.0141,0.0136,0,0,0,0,0,0,-0.027,-0.0237,-0.0219,-0.0226,-0.0198,-0.0148,-0.0147,-0.0118,-0.0078,-0.0072,-0.0004,0.0013,0.0047,0.0087,0.0083,0.0139,0.0165,0.0167,0.0108,0.0102,0.0097,0.0088,0.0136,0,0,0,0,0,-0.0284,-0.0288,-0.0247,-0.0254,-0.0244,-0.0197,-0.0183,-0.0156,-0.0115,-0.0096,-0.0046,0.0008,0.0054,0.0083,0.0126,0.0156,0.0211,0.0167,0.0161,0.0157,0.0158,0.0239,0.0241,0.0214,0.0214,0.0214,0,0,-0.0303,-0.0287,-0.0288,-0.0264,-0.0239,-0.0232,-0.0186,-0.0174,-0.0162,-0.0088,-0.006,-0.0011,0.0057,0.0091,0.011,0.0126,0.0191,0.0156,0.0151,0.0156,0.0238,0.0241,0.0244,0.0214,0.0214,0.0214,0,0,-0.0349,-0.0329,-0.0348,-0.0329,-0.0302,-0.0267,-0.0268,-0.0222,-0.0195,-0.0165,-0.0107,-0.0059,0.0005,0.006,0.0095,0.0087,0.0157,0.0096,0.007,0.0147,0.015,0.0154,0.0218,0.0228,0.0099,0.0099,0.0099,0,-0.0375,-0.0388,-0.035,-0.0361,-0.0349,-0.0288,-0.0298,-0.0264,-0.021,-0.0182,-0.0168,-0.0057,-0.0007,0.0057,0.0052,0.0077,0.0127,0.0087,0.0141,0.0146,0.015,0.0216,0.0228,0.0095,0.0095,0.0096,0.0096,0,-0.043,-0.0439,-0.0449,-0.0437,-0.0417,-0.0419,-0.0364,-0.0339,-0.0298,-0.0252,-0.019,-0.0116,-0.0045,-0.0025,0.0011,0.007,0.0096,0.012,0.0155,0.0149,0.0218,0.0232,0.009,0.0091,0.0092,0.0093,0,0,-0.0492,-0.0489,-0.0493,-0.0497,-0.0457,-0.0446,-0.0422,-0.0374,-0.0347,-0.0288,-0.0241,-0.0166,-0.0114,-0.0071,-0.0011,0.0053,0.0123,0.0092,0.0098,0.0153,0.0289,0.032,0.0338,0.0158,0.016,0.0162,0.032,0,-0.0546,-0.0591,-0.0562,-0.0583,-0.0594,-0.0526,-0.0504,-0.0448,-0.0386,-0.0326,-0.0231,-0.017,-0.0133,-0.0096,-0.0027,0.0091,0.0157,0.0077,0.029,0.0296,0.0323,0.0355,0.0394,0.054,0.0334,0.0337,0.0338,0,-0.0606,-0.0627,-0.0667,-0.0648,-0.0644,-0.0639,-0.0576,-0.0549,-0.0443,-0.0392,-0.0306,-0.0223,-0.0115,-0.0088,0.0109,0.0057,0.0161,0.0248,0.0257,0.0323,0.0354,0.0516,0.0573,0.0705,0.036,0.0358,0.0357,0,-0.0671,-0.0691,-0.0725,-0.0723,-0.0695,-0.0687,-0.066,-0.0573,-0.0535,-0.0428,-0.0382,-0.0241,-0.0156,-0.0016,0.0161,0.0141,0.0383,0.0385,0.0511,0.0514,0.0609,0.0617,0.082,0.0521,0.0521,0.0521,0.052,0,-0.0736,-0.076,-0.0762,-0.0783,-0.0805,-0.0754,-0.0742,-0.0692,-0.0598,-0.0538,-0.0424,-0.0334,-0.0133,0.0031,0.0169,0.0391,0.0397,0.052,0.0566,0.0583,0.0586,0.0755,0.0794,0.0527,0.0525,0.0524,0.0523,0,-0.08,-0.0804,-0.0843,-0.084,-0.0841,-0.0857,-0.0812,-0.079,-0.07,-0.0615,-0.058,-0.0378,-0.0159,0.0041,0.0303,0.0415,0.0707,0.0683,0.0682,0.0724,0.0937,0.0969,0.1206,0.1305,0.0846,0.0848,0.085,0,-0.0836,-0.0867,-0.0902,-0.0932,-0.0936,-0.0946,-0.0943,-0.0858,-0.0812,-0.063,-0.0582,-0.0354,-0.0161,0.022,0.0466,0.0731,0.0822,0.09,0.0866,0.0972,0.1042,0.1052,0.1118,0.0966,0.0969,0.0971,0.0972,0,-0.0898,-0.0911,-0.0947,-0.1018,-0.104,-0.1051,-0.1028,-0.1002,-0.0869,-0.0754,-0.0546,-0.0375,0.0,0.0352,0.0675,0.0819,0.1001,0.0946,0.108,0.1175,0.118,0.1288,0.0823,0.099,0.0988,0.0987,0.0986,0.0985,-0.0933,-0.0984,-0.1035,-0.1091,-0.1123,-0.1131,-0.1113,-0.102,-0.0908,-0.0634,-0.0522,-0.0151,0.0251,0.073,0.0896,0.1224,0.1169,0.1309,0.1346,0.1351,0.1428,0.0985,0.1179,0.1178,0.1178,0.1177,0.1177,0,-0.0974,-0.1029,-0.1099,-0.1157,-0.119,-0.1187,-0.114,-0.1039,-0.0858,-0.0517,-0.0262,0.0282,0.0682,0.1056,0.1455,0.1618,0.1656,0.169,0.173,0.1786,0.1434,0.142,0.1646,0.1646,0.1646,0.1646,0.1646,0.1645,-0.0996,-0.1079,-0.1119,-0.1188,-0.122,-0.1205,-0.1163,-0.0945,-0.0671,-0.0114,0.0338,0.0646,0.1053,0.1587,0.1952,0.1979,0.2131,0.2097,0.219,0.1946,0.1913,0.1881,0.188,0.2199,0.22,0.2542,0.2546,0.2548]}],[{"header":{"parameterUnit":"m.s-1","parameterCategory":2,"la1":30.2991,"la2":30.254,"lo1":-89.0895,"lo2":-89.0444,"dy":0.0017,"dx":0.0017,"nx":28,"ny":28,"refTime":"2024-05-22T03:00:00:Z","depth":"2","parameterNumber":2,"parameterNumberName":"U-component_of_CURRENTS"},"data":[0,0,0,0,0,0,0,0,0,0,0,0,0,0,0,0,0,0,0,0,0,0,0,0,0,0,0,0,0,0,0,0,0,0,0,0,0,0,0,0,0,0,0,0,0,0,0,0,0,0,0,0,0,0,0,0,0,0,-0.2358,-0.2359,0,-0.2384,-0.2385,-0.2385,-0.2368,-0.2368,-0.2367,-0.2367,-0.2341,-0.2341,-0.2341,0,0,0,0,0,0,0,0,0,0,0,0,0,-0.2292,-0.2293,-0.2358,-0.2359,-0.2359,-0.2384,-0.2385,-0.2385,-0.2368,-0.2368,-0.2367,-0.2366,-0.2341,-0.2341,-0.2341,0,0,0,0,0,0,0,0,0,0,0,0,0,-0.2318,-0.2294,-0.2358,-0.2355,-0.2356,-0.2384,-0.2385,-0.2385,-0.2369,-0.2368,-0.2367,-0.2366,-0.2341,-0.2341,-0.2341,-0.2358,0,0,-0.234,-0.234,0,0,0,0,0,0,0,0,-0.2317,-0.232,-0.2355,-0.2356,-0.2356,-0.2374,-0.2352,-0.2374,-0.2369,-0.2362,-0.2366,-0.2365,-0.2349,-0.2348,-0.2353,-0.2356,-0.2355,-0.234,-0.234,-0.234,-0.234,0,0,0,0,0,0,0,-0.2315,-0.2319,-0.2367,-0.2356,-0.2356,-0.2353,-0.2355,-0.2356,-0.2358,-0.2362,-0.2361,-0.2368,-0.2349,-0.2353,-0.2352,-0.2355,-0.234,-0.234,-0.234,-0.234,-0.2382,-0.2383,0,0,0,0,0,0,-0.2317,-0.2318,-0.2366,-0.2368,-0.2336,-0.2355,-0.2357,-0.2367,-0.2359,-0.2358,-0.2369,-0.2367,-0.2354,-0.2353,-0.2351,-0.238,-0.234,-0.234,-0.234,-0.2381,-0.2382,-0.2383,0,0,0,0,0,0,-0.2315,-0.2321,-0.2365,-0.2344,-0.235,-0.2357,-0.2368,-0.2368,-0.2373,-0.2365,-0.2362,-0.2372,-0.2353,-0.2352,-0.2359,-0.2378,-0.234,-0.234,-0.2379,-0.2381,-0.2383,-0.243,0,0,0,0,0,0,-0.2313,-0.232,-0.2326,-0.2345,-0.2351,-0.2388,-0.2369,-0.237,-0.2379,-0.2377,-0.2367,-0.2364,-0.2353,-0.2359,-0.2359,-0.2377,-0.2339,-0.2378,-0.238,-0.2382,-0.2427,-0.2433,-0.2439,0,0,0,0,0,-0.2311,-0.2325,-0.2326,-0.2332,-0.236,-0.2389,-0.2392,-0.2392,-0.238,-0.239,-0.2383,-0.2364,-0.2373,-0.236,-0.2359,-0.2378,-0.2376,-0.2379,-0.2382,-0.2424,-0.2432,-0.2439,0,0,0,0,0,0,-0.2295,-0.2326,-0.2327,-0.2348,-0.2369,-0.2387,-0.2393,-0.2396,-0.24,-0.2392,-0.2378,-0.2376,-0.2392,-0.238,-0.2366,-0.2398,-0.2373,-0.2375,-0.2405,-0.2413,-0.2418,-0.2419,-0.2339,0,0,0,0,0,-0.2297,-0.2312,-0.2343,-0.2356,-0.2368,-0.2381,-0.2391,-0.2397,-0.2404,-0.2404,-0.24,-0.2397,-0.2405,-0.2403,-0.2407,-0.2422,-0.2394,-0.2435,-0.2441,-0.2446,-0.2447,-0.2434,-0.2438,-0.2392,-0.2392,-0.2392,0,0,-0.2293,-0.2311,-0.2318,-0.2353,-0.2364,-0.2396,-0.2384,-0.2405,-0.2428,-0.2401,-0.2421,-0.2418,-0.2414,-0.2434,-0.244,-0.2424,-0.2441,-0.2449,-0.2453,-0.2451,-0.2437,-0.2441,-0.2445,-0.2394,-0.2394,-0.2394,0,0,-0.2299,-0.231,-0.233,-0.2356,-0.2385,-0.24,-0.2409,-0.2435,-0.2442,-0.2466,-0.2455,-0.2463,-0.2471,-0.2475,-0.2477,-0.2518,-0.2476,-0.2521,-0.2547,-0.2535,-0.2538,-0.254,-0.2494,-0.2492,-0.252,-0.252,-0.252,0,-0.2292,-0.2322,-0.234,-0.2372,-0.2391,-0.2406,-0.2437,-0.2456,-0.248,-0.2487,-0.2476,-0.2494,-0.2492,-0.2514,-0.2533,-0.253,-0.2504,-0.2518,-0.2541,-0.2543,-0.2545,-0.2496,-0.2493,-0.2523,-0.2523,-0.2522,-0.2522,0,-0.2319,-0.2346,-0.2359,-0.2404,-0.2432,-0.2457,-0.2494,-0.2515,-0.252,-0.2534,-0.2554,-0.2552,-0.2558,-0.2567,-0.2563,-0.2584,-0.2553,-0.2551,-0.2519,-0.2552,-0.2499,-0.2495,-0.2527,-0.2526,-0.2525,-0.2524,0,0,-0.2288,-0.2365,-0.2366,-0.2392,-0.2449,-0.2471,-0.2517,-0.2557,-0.2573,-0.2593,-0.2606,-0.2631,-0.262,-0.2622,-0.2617,-0.2612,-0.2602,-0.2591,-0.2589,-0.2538,-0.2547,-0.2448,-0.2433,-0.2604,-0.2604,-0.2604,-0.2498,0,-0.2298,-0.2357,-0.2396,-0.2447,-0.2478,-0.2517,-0.2557,-0.2594,-0.2612,-0.2631,-0.2633,-0.2645,-0.2645,-0.2642,-0.2643,-0.2619,-0.2597,-0.2629,-0.2529,-0.2526,-0.2429,-0.2428,-0.227,-0.2156,-0.2494,-0.2493,-0.2493,0,-0.2303,-0.2343,-0.2398,-0.2466,-0.2482,-0.2517,-0.2566,-0.2605,-0.2645,-0.2657,-0.267,-0.2669,-0.2678,-0.2664,-0.2629,-0.2648,-0.2602,-0.2573,-0.2568,-0.2457,-0.242,-0.2183,-0.2136,-0.2486,-0.2486,-0.2487,-0.2487,0,-0.2255,-0.2336,-0.2374,-0.24,-0.2486,-0.2511,-0.255,-0.2603,-0.2626,-0.2664,-0.2667,-0.2684,-0.2668,-0.2645,-0.2591,-0.2612,-0.2524,-0.2541,-0.2399,-0.239,-0.2225,-0.2201,-0.2498,-0.2498,-0.2498,-0.2499,-0.2499,0,-0.2241,-0.2266,-0.2354,-0.2373,-0.2408,-0.2482,-0.2513,-0.2557,-0.2608,-0.262,-0.2666,-0.2654,-0.2664,-0.2618,-0.2582,-0.2462,-0.2509,-0.2391,-0.2359,-0.2235,-0.2215,-0.2485,-0.2485,-0.2495,-0.2496,-0.2496,-0.2497,0,-0.2171,-0.2237,-0.2275,-0.2362,-0.2386,-0.2403,-0.2478,-0.2501,-0.2562,-0.2574,-0.2584,-0.2618,-0.2556,-0.2527,-0.2464,-0.2418,-0.2337,-0.2276,-0.2112,-0.2063,-0.2213,-0.2217,-0.2119,-0.2115,-0.2111,-0.2108,-0.2105,0,-0.2139,-0.2155,-0.2234,-0.225,-0.2284,-0.2329,-0.236,-0.2454,-0.248,-0.2533,-0.2526,-0.2493,-0.2425,-0.2293,-0.2203,-0.2085,-0.219,-0.1894,-0.1916,-0.2197,-0.2176,-0.2186,-0.2194,-0.1706,-0.17,-0.1696,-0.1692,0,-0.2056,-0.2082,-0.2111,-0.2147,-0.2181,-0.2211,-0.2265,-0.2277,-0.2375,-0.2379,-0.2349,-0.2298,-0.2185,-0.1991,-0.1864,-0.1794,-0.1912,-0.1795,-0.2117,-0.1836,-0.1802,-0.1783,-0.1806,-0.1651,-0.1655,-0.1658,-0.166,-0.1662,-0.1966,-0.1961,-0.1997,-0.2013,-0.2053,-0.2053,-0.2018,-0.2086,-0.2077,-0.2043,-0.2107,-0.1963,-0.194,-0.1633,-0.1532,-0.1458,-0.1594,-0.1554,-0.1571,-0.1592,-0.1572,-0.1535,-0.1328,-0.133,-0.1332,-0.1333,-0.1335,0,-0.1842,-0.185,-0.1861,-0.1867,-0.1841,-0.1909,-0.1919,-0.1847,-0.1775,-0.1784,-0.1717,-0.1482,-0.1351,-0.1325,-0.1136,-0.1107,-0.1125,-0.108,-0.1116,-0.1156,-0.1192,-0.1156,-0.0798,-0.0797,-0.0795,-0.0794,0,0,-0.1775,-0.1734,-0.1737,-0.1637,-0.164,-0.1535,-0.1495,-0.1418,-0.1376,-0.1241,-0.1171,-0.1246,-0.1265,-0.1023,-0.0976,-0.0853,-0.0996,-0.0808,-0.1236,-0.1316,-0.135,-0.1458,-0.1446,0,0,0,0,0]},{"header":{"parameterUnit":"m.s-1","parameterCategory":2,"la1":30.2991,"la2":30.254,"lo1":-89.0895,"lo2":-89.0444,"dy":0.0017,"dx":0.0017,"nx":28,"ny":28,"refTime":"2024-05-22T03:00:00:Z","depth":"2","parameterNumber":3,"parameterNumberName":"V-component_of_CURRENTS"},"data":[0,0,0,0,0,0,0,0,0,0,0,0,0,0,0,0,0,0,0,0,0,0,0,0,0,0,0,0,0,0,0,0,0,0,0,0,0,0,0,0,0,0,0,0,0,0,0,0,0,0,0,0,0,0,0,0,0,0,-0.0279,-0.0279,0,-0.02,-0.0199,-0.0198,-0.014,-0.014,-0.0139,-0.0139,-0.0014,-0.0011,-0.0008,0,0,0,0,0,0,0,0,0,0,0,0,0,-0.0329,-0.0328,-0.028,-0.0279,-0.0278,-0.02,-0.0199,-0.0197,-0.014,-0.014,-0.0139,-0.0139,-0.0015,-0.0011,-0.0008,0,0,0,0,0,0,0,0,0,0,0,0,0,-0.0283,-0.0328,-0.028,-0.0241,-0.0237,-0.02,-0.0199,-0.0197,-0.014,-0.014,-0.0139,-0.0139,-0.0016,-0.0012,-0.0007,0.0011,0,0,0.0007,0.0009,0,0,0,0,0,0,0,0,-0.0285,-0.0281,-0.0248,-0.0244,-0.0239,-0.0181,-0.017,-0.0126,-0.014,-0.0175,-0.0139,-0.0138,-0.0067,-0.0058,-0.0042,0.0017,0.0022,0.0007,0.001,0.0012,0.0013,0,0,0,0,0,0,0,-0.0289,-0.0283,-0.0246,-0.0247,-0.0242,-0.0209,-0.0203,-0.0161,-0.0123,-0.0172,-0.0168,-0.0162,-0.0064,-0.0047,-0.0039,0.0024,0.0007,0.0011,0.0014,0.0016,0.0113,0.0113,0,0,0,0,0,0,-0.0305,-0.0287,-0.0249,-0.0244,-0.0263,-0.0209,-0.0202,-0.0199,-0.0124,-0.0113,-0.0163,-0.016,-0.0055,-0.0044,-0.0034,-0.0006,0.0012,0.0016,0.0019,0.0113,0.0113,0.0113,0,0,0,0,0,0,-0.0307,-0.0303,-0.0252,-0.0265,-0.0256,-0.021,-0.0206,-0.0197,-0.0181,-0.0117,-0.0105,-0.0156,-0.0054,-0.0041,0.0,-0.0001,0.0018,0.0022,0.0113,0.0113,0.0113,0.0048,0,0,0,0,0,0,-0.0309,-0.0304,-0.031,-0.0266,-0.0256,-0.0238,-0.0207,-0.0196,-0.0179,-0.0174,-0.0108,-0.0095,-0.0053,-0.0007,0.0005,0.0005,0.0026,0.0113,0.0113,0.0113,0.0051,0.0046,0.0042,0,0,0,0,0,-0.0311,-0.0323,-0.0311,-0.0306,-0.0265,-0.0238,-0.023,-0.0194,-0.0179,-0.0177,-0.013,-0.0098,-0.0,-0.0003,0.001,0.0012,0.0114,0.0113,0.0113,0.0053,0.0047,0.0042,0,0,0,0,0,0,-0.0347,-0.0317,-0.0303,-0.0305,-0.0278,-0.0229,-0.0226,-0.0201,-0.0162,-0.0158,-0.0097,-0.0081,-0.0048,-0.001,-0.0015,0.0039,0.0061,0.0064,0.0011,0.0006,0.0002,-0.0009,0.003,0,0,0,0,0,-0.036,-0.0362,-0.0324,-0.0327,-0.0316,-0.0273,-0.0258,-0.0234,-0.0194,-0.0177,-0.013,-0.0081,-0.0038,-0.0011,0.003,0.0061,0.0105,0.0071,0.0067,0.0063,0.0063,0.0128,0.0129,0.0112,0.0112,0.0112,0,0,-0.0375,-0.036,-0.036,-0.0335,-0.031,-0.0302,-0.0262,-0.0247,-0.0236,-0.0169,-0.0142,-0.0096,-0.0035,-0.0001,0.0018,0.0032,0.0089,0.0062,0.0058,0.0061,0.0128,0.0129,0.0131,0.0112,0.0112,0.0112,0,0,-0.0411,-0.0393,-0.0407,-0.0389,-0.0361,-0.033,-0.0329,-0.0285,-0.0261,-0.023,-0.018,-0.0135,-0.0073,-0.0025,0.0007,0.0004,0.006,0.0013,-0.0011,0.0052,0.0054,0.0056,0.0106,0.0113,0.0015,0.0015,0.0015,0,-0.0432,-0.0442,-0.0407,-0.0413,-0.0402,-0.0348,-0.0354,-0.0322,-0.0269,-0.0247,-0.0232,-0.0132,-0.0083,-0.0027,-0.0029,-0.0005,0.0035,0.0002,0.0046,0.0049,0.0053,0.0103,0.0112,0.0012,0.0012,0.0013,0.0013,0,-0.0474,-0.0482,-0.0488,-0.0476,-0.0457,-0.0456,-0.0406,-0.0384,-0.0348,-0.0307,-0.0252,-0.0181,-0.0119,-0.0099,-0.0063,-0.0014,0.0006,0.0028,0.0057,0.0051,0.0104,0.0115,0.0007,0.0009,0.001,0.001,0,0,-0.0525,-0.0521,-0.0524,-0.053,-0.0491,-0.0481,-0.0458,-0.0417,-0.0398,-0.034,-0.0305,-0.0229,-0.0184,-0.0145,-0.009,-0.0034,0.0021,0.0001,0.0006,0.0046,0.0152,0.0174,0.0188,0.0052,0.0053,0.0055,0.0176,0,-0.057,-0.0608,-0.0581,-0.06,-0.061,-0.0552,-0.0534,-0.0486,-0.0432,-0.0383,-0.0297,-0.0246,-0.0203,-0.0173,-0.011,-0.0008,0.0048,-0.0014,0.0157,0.0162,0.0179,0.0201,0.0177,0.0284,0.0187,0.0189,0.019,0,-0.0619,-0.0638,-0.0674,-0.0664,-0.0661,-0.0657,-0.0611,-0.0586,-0.0498,-0.0454,-0.038,-0.0308,-0.0213,-0.018,-0.001,-0.0051,0.004,0.0118,0.0125,0.0177,0.0204,0.0278,0.0308,0.0208,0.0207,0.0205,0.0204,0,-0.0679,-0.0697,-0.0731,-0.073,-0.0709,-0.0706,-0.0686,-0.0614,-0.0585,-0.0497,-0.046,-0.0339,-0.0269,-0.0142,0.0019,0.0007,0.0209,0.0216,0.0322,0.0324,0.0354,0.0357,0.0332,0.0332,0.0332,0.0332,0.0331,0,-0.0736,-0.0761,-0.0767,-0.0787,-0.0815,-0.0771,-0.0771,-0.0729,-0.0654,-0.0611,-0.0506,-0.0433,-0.0255,-0.0115,0.0016,0.0208,0.0212,0.0326,0.0364,0.033,0.0328,0.0302,0.0297,0.0336,0.0335,0.0334,0.0333,0,-0.0795,-0.08,-0.084,-0.0844,-0.0848,-0.0869,-0.0841,-0.083,-0.0753,-0.0691,-0.0664,-0.049,-0.0301,-0.012,0.0107,0.021,0.0383,0.0447,0.0389,0.0416,0.0453,0.0443,0.0573,0.0575,0.0577,0.0578,0.0579,0,-0.083,-0.0859,-0.0898,-0.093,-0.0937,-0.0956,-0.0962,-0.0894,-0.0863,-0.0713,-0.0677,-0.0486,-0.032,0.0013,0.0226,0.046,0.0452,0.0554,0.0528,0.0458,0.0481,0.0468,0.0457,0.0542,0.0542,0.0543,0.0543,0,-0.089,-0.0903,-0.0939,-0.1013,-0.1041,-0.1062,-0.1054,-0.1039,-0.0932,-0.0837,-0.0663,-0.0517,-0.0196,0.0082,0.0362,0.0484,0.0511,0.0573,0.0545,0.0475,0.0436,0.0455,0.0444,0.0549,0.0548,0.0548,0.0548,0.0547,-0.0927,-0.0976,-0.1027,-0.1086,-0.1123,-0.1143,-0.114,-0.108,-0.0995,-0.081,-0.0666,-0.0402,-0.0159,0.0268,0.0454,0.0607,0.0602,0.0634,0.0629,0.0625,0.059,0.0555,0.0684,0.0684,0.0684,0.0684,0.0684,0,-0.0973,-0.1025,-0.1094,-0.1157,-0.1196,-0.1198,-0.1174,-0.1118,-0.0988,-0.0803,-0.059,-0.0272,0.004,0.0277,0.0539,0.0689,0.0659,0.0693,0.0632,0.0626,0.0621,0.0583,0.0677,0.0678,0.0678,0.0678,0,0,-0.1,-0.1079,-0.1116,-0.1193,-0.123,-0.1237,-0.1211,-0.1088,-0.0944,-0.072,-0.0506,-0.0242,0.0054,0.0242,0.043,0.0561,0.0536,0.0555,0.0544,0.0441,0.0434,0.0574,0.0508,0,0,0,0,0]}],[{"header":{"parameterUnit":"m.s-1","parameterCategory":2,"la1":30.2991,"la2":30.254,"lo1":-89.0895,"lo2":-89.0444,"dy":0.0017,"dx":0.0017,"nx":28,"ny":28,"refTime":"2024-05-22T03:00:00:Z","depth":"4","parameterNumber":2,"parameterNumberName":"U-component_of_CURRENTS"},"data":[0,0,0,0,0,0,0,0,0,0,0,0,0,0,0,0,0,0,0,0,0,0,0,0,0,0,0,0,0,0,0,0,0,0,0,0,0,0,0,0,0,0,0,0,0,0,0,0,0,0,0,0,0,0,0,0,0,0,-0.1678,-0.1679,0,-0.1745,-0.1746,-0.1746,-0.1785,-0.1785,-0.1785,-0.1786,-0.1832,-0.1833,-0.1834,0,0,0,0,0,0,0,0,0,0,0,0,0,-0.1584,-0.1585,-0.1678,-0.1679,-0.168,-0.1745,-0.1746,-0.1747,-0.1785,-0.1785,-0.1786,-0.1786,-0.1831,-0.1832,-0.1834,0,0,0,0,0,0,0,0,0,0,0,0,0,-0.1634,-0.1586,-0.1677,-0.1708,-0.1711,-0.1745,-0.1746,-0.1747,-0.1785,-0.1785,-0.1786,-0.1786,-0.1831,-0.1832,-0.1834,-0.1834,0,0,-0.1838,-0.1839,0,0,0,0,0,0,0,0,-0.1631,-0.1637,-0.1702,-0.1706,-0.171,-0.1758,-0.173,-0.1776,-0.1785,-0.1755,-0.1786,-0.1786,-0.1806,-0.1809,-0.1819,-0.1836,-0.1838,-0.1838,-0.1839,-0.184,-0.184,0,0,0,0,0,0,0,-0.1627,-0.1634,-0.1703,-0.1703,-0.1708,-0.1719,-0.1726,-0.1739,-0.1776,-0.1758,-0.1761,-0.1771,-0.1808,-0.1818,-0.1821,-0.1839,-0.1838,-0.184,-0.184,-0.1841,-0.1928,-0.1929,0,0,0,0,0,0,-0.1622,-0.1631,-0.1701,-0.1705,-0.1672,-0.172,-0.1728,-0.1741,-0.1776,-0.1783,-0.1771,-0.1773,-0.1815,-0.1819,-0.1822,-0.1893,-0.184,-0.1841,-0.1842,-0.1926,-0.1928,-0.193,0,0,0,0,0,0,-0.162,-0.1627,-0.1698,-0.167,-0.168,-0.1722,-0.1735,-0.1742,-0.178,-0.1786,-0.1792,-0.1805,-0.1816,-0.182,-0.1863,-0.1893,-0.1842,-0.1843,-0.1925,-0.1927,-0.1929,-0.1991,0,0,0,0,0,0,-0.1617,-0.1626,-0.1648,-0.167,-0.1682,-0.1739,-0.1735,-0.1743,-0.1785,-0.1789,-0.1817,-0.182,-0.1816,-0.1861,-0.1864,-0.1894,-0.1844,-0.1923,-0.1926,-0.1928,-0.1987,-0.1995,-0.2002,0,0,0,0,0,-0.1613,-0.1637,-0.1648,-0.1657,-0.1705,-0.174,-0.1748,-0.1776,-0.1786,-0.1811,-0.1833,-0.1821,-0.188,-0.1863,-0.1867,-0.1898,-0.1921,-0.1925,-0.1928,-0.1984,-0.1994,-0.2002,0,0,0,0,0,0,-0.1608,-0.1644,-0.1657,-0.1691,-0.1724,-0.1748,-0.1776,-0.1793,-0.183,-0.1841,-0.1842,-0.1848,-0.1895,-0.1889,-0.1871,-0.193,-0.1898,-0.1902,-0.1939,-0.1948,-0.1955,-0.1952,-0.1845,0,0,0,0,0,-0.1616,-0.1644,-0.1677,-0.1706,-0.1725,-0.1756,-0.1779,-0.1801,-0.1829,-0.1847,-0.1868,-0.1887,-0.1907,-0.1923,-0.1938,-0.1973,-0.1945,-0.1994,-0.2001,-0.2008,-0.2008,-0.1998,-0.2004,-0.194,-0.194,-0.194,0,0,-0.1622,-0.1645,-0.1663,-0.1708,-0.1734,-0.1771,-0.1772,-0.1817,-0.1853,-0.1845,-0.1906,-0.1918,-0.1923,-0.1963,-0.1983,-0.1965,-0.201,-0.2012,-0.2017,-0.2013,-0.2002,-0.2008,-0.2013,-0.1942,-0.1942,-0.1942,0,0,-0.164,-0.1671,-0.17,-0.1732,-0.178,-0.18,-0.182,-0.1865,-0.1894,-0.1947,-0.195,-0.1981,-0.2018,-0.2025,-0.2031,-0.2087,-0.205,-0.2098,-0.2132,-0.2124,-0.2128,-0.2132,-0.2095,-0.2095,-0.21,-0.21,-0.21,0,-0.1649,-0.1686,-0.1715,-0.1752,-0.1782,-0.1817,-0.1856,-0.1891,-0.1947,-0.1968,-0.1977,-0.2031,-0.2043,-0.2075,-0.2101,-0.2103,-0.2083,-0.2098,-0.2132,-0.2135,-0.2138,-0.2099,-0.2098,-0.2103,-0.2103,-0.2102,-0.2102,0,-0.168,-0.1723,-0.1744,-0.18,-0.1839,-0.1879,-0.1926,-0.1972,-0.2008,-0.2034,-0.2087,-0.2104,-0.213,-0.2145,-0.2145,-0.2177,-0.215,-0.2142,-0.2106,-0.2148,-0.2104,-0.2102,-0.2108,-0.2107,-0.2106,-0.2105,0,0,-0.1657,-0.1749,-0.1757,-0.1792,-0.1868,-0.1897,-0.1964,-0.2019,-0.2053,-0.2109,-0.2143,-0.2193,-0.2199,-0.2206,-0.221,-0.2212,-0.222,-0.2196,-0.2194,-0.2152,-0.2182,-0.2035,-0.2017,-0.2222,-0.2222,-0.2222,-0.2139,0,-0.1672,-0.1741,-0.1787,-0.1857,-0.1895,-0.1953,-0.2006,-0.2064,-0.2107,-0.2151,-0.2175,-0.2211,-0.2222,-0.2238,-0.2247,-0.223,-0.222,-0.2241,-0.2153,-0.215,-0.2009,-0.2012,-0.2223,-0.2137,-0.2137,-0.2136,-0.2136,0,-0.1676,-0.1724,-0.1796,-0.1881,-0.1904,-0.1956,-0.2033,-0.2085,-0.2151,-0.2183,-0.2223,-0.2239,-0.2268,-0.2264,-0.2249,-0.2265,-0.2232,-0.221,-0.2205,-0.2043,-0.1998,-0.209,-0.2131,-0.2132,-0.2132,-0.2132,-0.2133,0,-0.1622,-0.1722,-0.1779,-0.1811,-0.1917,-0.1963,-0.2019,-0.2096,-0.2131,-0.2201,-0.2218,-0.2258,-0.2264,-0.2255,-0.2223,-0.2242,-0.2176,-0.2188,-0.2016,-0.2004,-0.2136,-0.2132,-0.2161,-0.2161,-0.2161,-0.2161,-0.2162,0,-0.1597,-0.1643,-0.1765,-0.1794,-0.1854,-0.1944,-0.2003,-0.2062,-0.2134,-0.2153,-0.2228,-0.2223,-0.2266,-0.2236,-0.2214,-0.2091,-0.2164,-0.2008,-0.1971,-0.2162,-0.2164,-0.2133,-0.213,-0.2158,-0.2159,-0.2159,-0.216,0,-0.1519,-0.1605,-0.1671,-0.1793,-0.1832,-0.1874,-0.1982,-0.2012,-0.2098,-0.2121,-0.2142,-0.2194,-0.2147,-0.2145,-0.2104,-0.2043,-0.1965,-0.1901,-0.208,-0.2057,-0.1802,-0.1805,-0.1702,-0.1696,-0.1691,-0.1686,-0.1683,0,-0.1482,-0.1513,-0.1644,-0.1679,-0.1739,-0.1818,-0.1862,-0.1975,-0.2001,-0.2073,-0.2061,-0.2055,-0.2064,-0.1866,-0.1905,-0.1816,-0.1801,-0.1754,-0.1807,-0.1779,-0.1755,-0.1766,-0.1775,-0.1675,-0.1674,-0.1672,-0.1671,0,-0.1397,-0.1458,-0.1507,-0.158,-0.1643,-0.1691,-0.1766,-0.1767,-0.1873,-0.1975,-0.1906,-0.1863,-0.1791,-0.1748,-0.1676,-0.1631,-0.1791,-0.1702,-0.1713,-0.1762,-0.1746,-0.1729,-0.1744,-0.1653,-0.1656,-0.1658,-0.1659,0,-0.1325,-0.1335,-0.1407,-0.1449,-0.1522,-0.1527,-0.1589,-0.1606,-0.164,-0.1741,-0.1709,-0.1706,-0.1759,-0.1647,-0.1593,-0.1522,-0.1512,-0.1483,-0.1506,-0.1525,-0.1509,-0.1465,-0.1237,0,0,0,0,0,-0.1242,-0.1234,-0.1267,-0.1304,-0.1369,-0.14,-0.1502,-0.1569,-0.168,-0.1581,-0.164,-0.1567,-0.1476,-0.1487,-0.1371,-0.1514,-0.152,-0.1378,-0.1501,-0.1557,-0.1577,-0.1575,0,0,0,0,0,0,-0.1186,-0.1211,-0.1214,-0.116,-0.1156,-0.1202,-0.1254,-0.1338,-0.1298,-0.1418,-0.1367,-0.1466,-0.1392,-0.1489,-0.1329,-0.1332,-0.1378,-0.14,-0.1396,-0.1545,-0.1564,-0.158,-0.1585,0,0,0,0,0]},{"header":{"parameterUnit":"m.s-1","parameterCategory":2,"la1":30.2991,"la2":30.254,"lo1":-89.0895,"lo2":-89.0444,"dy":0.0017,"dx":0.0017,"nx":28,"ny":28,"refTime":"2024-05-22T03:00:00:Z","depth":"4","parameterNumber":3,"parameterNumberName":"V-component_of_CURRENTS"},"data":[0,0,0,0,0,0,0,0,0,0,0,0,0,0,0,0,0,0,0,0,0,0,0,0,0,0,0,0,0,0,0,0,0,0,0,0,0,0,0,0,0,0,0,0,0,0,0,0,0,0,0,0,0,0,0,0,0,0,-0.022,-0.022,0,-0.0163,-0.0163,-0.0162,-0.0126,-0.0126,-0.0126,-0.0126,-0.0028,-0.0025,-0.0023,0,0,0,0,0,0,0,0,0,0,0,0,0,-0.0251,-0.0251,-0.022,-0.022,-0.0219,-0.0164,-0.0163,-0.0162,-0.0126,-0.0126,-0.0126,-0.0126,-0.0028,-0.0025,-0.0022,0,0,0,0,0,0,0,0,0,0,0,0,0,-0.0219,-0.0251,-0.022,-0.0196,-0.0193,-0.0164,-0.0163,-0.0161,-0.0126,-0.0126,-0.0126,-0.0126,-0.0029,-0.0026,-0.0022,-0.0,0,0,-0.001,-0.0009,0,0,0,0,0,0,0,0,-0.0221,-0.0218,-0.02,-0.0197,-0.0194,-0.0153,-0.0138,-0.0106,-0.0126,-0.015,-0.0126,-0.0126,-0.0067,-0.006,-0.0048,0.0004,0.0008,-0.001,-0.0008,-0.0006,-0.0005,0,0,0,0,0,0,0,-0.0223,-0.022,-0.0196,-0.0199,-0.0196,-0.0172,-0.0167,-0.0131,-0.0108,-0.0148,-0.0145,-0.0142,-0.0065,-0.0052,-0.0045,0.001,-0.001,-0.0007,-0.0004,-0.0003,0.0084,0.0084,0,0,0,0,0,0,-0.0236,-0.0222,-0.0198,-0.0195,-0.0209,-0.0172,-0.0166,-0.0165,-0.0109,-0.0101,-0.0142,-0.014,-0.0058,-0.005,-0.0042,-0.0018,-0.0006,-0.0002,-0.0,0.0084,0.0084,0.0084,0,0,0,0,0,0,-0.0237,-0.0235,-0.02,-0.0208,-0.0202,-0.0172,-0.017,-0.0164,-0.0154,-0.0105,-0.0096,-0.0139,-0.0058,-0.0047,-0.0013,-0.0014,-0.0001,0.0003,0.0084,0.0084,0.0084,0.0033,0,0,0,0,0,0,-0.0238,-0.0235,-0.0242,-0.0209,-0.0202,-0.0189,-0.017,-0.0163,-0.0153,-0.015,-0.0099,-0.009,-0.0057,-0.0019,-0.0009,-0.0008,0.0006,0.0084,0.0084,0.0084,0.0035,0.0031,0.0028,0,0,0,0,0,-0.0239,-0.0248,-0.0242,-0.024,-0.0211,-0.0189,-0.0184,-0.016,-0.0153,-0.0151,-0.0116,-0.0092,-0.0012,-0.0016,-0.0004,-0.0002,0.0084,0.0084,0.0084,0.0036,0.0032,0.0028,0,0,0,0,0,0,-0.0263,-0.0244,-0.0238,-0.024,-0.022,-0.0184,-0.0182,-0.0166,-0.0137,-0.0136,-0.0089,-0.0077,-0.0049,-0.0018,-0.0024,0.0023,0.0039,0.0041,-0.0001,-0.0005,-0.0008,-0.002,0.0009,0,0,0,0,0,-0.0274,-0.0277,-0.025,-0.0254,-0.0246,-0.0216,-0.0206,-0.019,-0.016,-0.0148,-0.0112,-0.0074,-0.0039,-0.0017,0.0017,0.0045,0.0076,0.0053,0.005,0.0047,0.0045,0.0093,0.0094,0.0084,0.0084,0.0084,0,0,-0.0284,-0.0275,-0.0277,-0.026,-0.0243,-0.0237,-0.021,-0.0199,-0.0192,-0.0141,-0.0121,-0.0084,-0.0035,-0.0006,0.001,0.002,0.0065,0.0047,0.0044,0.0043,0.0094,0.0095,0.0096,0.0084,0.0084,0.0084,0,0,-0.0308,-0.03,-0.031,-0.0297,-0.0279,-0.0257,-0.0258,-0.0225,-0.021,-0.0185,-0.0148,-0.0112,-0.0061,-0.0023,0.0002,0.0004,0.0044,0.0012,-0.0009,0.0038,0.0039,0.0041,0.0074,0.0078,0.0013,0.0013,0.0013,0,-0.0323,-0.0332,-0.0309,-0.0313,-0.0309,-0.0271,-0.0277,-0.0253,-0.0213,-0.02,-0.0187,-0.011,-0.0068,-0.0025,-0.0025,-0.0003,0.0024,-0.0,0.0034,0.0036,0.0038,0.0072,0.0078,0.0011,0.0011,0.0011,0.0012,0,-0.0349,-0.0359,-0.0364,-0.0359,-0.0347,-0.0347,-0.0312,-0.0298,-0.0275,-0.0246,-0.0206,-0.0147,-0.0101,-0.0081,-0.005,-0.0013,-0.0,0.002,0.004,0.0036,0.0072,0.0079,0.0007,0.0008,0.0009,0.001,0,0,-0.0379,-0.0384,-0.0388,-0.0399,-0.0374,-0.0369,-0.0355,-0.0329,-0.0323,-0.0275,-0.0257,-0.019,-0.0156,-0.0125,-0.0079,-0.0034,0.0007,-0.0004,-0.0001,0.0022,0.0101,0.0089,0.0096,0.0033,0.0034,0.0035,0.0115,0,-0.041,-0.0442,-0.0427,-0.045,-0.0461,-0.0426,-0.0416,-0.0386,-0.0351,-0.0321,-0.0252,-0.0216,-0.0173,-0.0152,-0.0099,-0.0018,0.0025,-0.0018,0.0106,0.011,0.0096,0.0104,0.0039,0.0121,0.0123,0.0124,0.0125,0,-0.044,-0.0461,-0.0496,-0.0505,-0.0506,-0.051,-0.0493,-0.0478,-0.042,-0.039,-0.0335,-0.0279,-0.0203,-0.017,-0.0035,-0.0065,0.0009,0.0073,0.0078,0.009,0.0112,0.013,0.0138,0.0137,0.0136,0.0135,0.0134,0,-0.048,-0.0507,-0.0542,-0.0546,-0.0545,-0.0554,-0.0549,-0.0506,-0.0493,-0.0435,-0.0413,-0.0318,-0.0265,-0.016,-0.0026,-0.0031,0.0122,0.0135,0.0193,0.0193,0.0201,0.0199,0.0225,0.0225,0.0224,0.0224,0.0224,0,-0.0515,-0.0545,-0.0572,-0.0592,-0.0632,-0.0609,-0.063,-0.0605,-0.0562,-0.0539,-0.0457,-0.0405,-0.0258,-0.0149,-0.0038,0.01,0.0116,0.019,0.0216,0.0177,0.0171,0.0206,0.0203,0.0227,0.0226,0.0226,0.0225,0,-0.0548,-0.0565,-0.0612,-0.0641,-0.0655,-0.0684,-0.0693,-0.0696,-0.065,-0.0615,-0.0597,-0.0464,-0.0318,-0.0172,0.0011,0.0083,0.0216,0.026,0.02,0.0222,0.0255,0.0248,0.0323,0.0324,0.0324,0.0324,0.0324,0,-0.0566,-0.0595,-0.066,-0.0699,-0.0719,-0.0759,-0.0779,-0.0748,-0.0732,-0.0638,-0.0611,-0.0474,-0.0372,-0.0115,0.0024,0.0221,0.025,0.0297,0.028,0.0248,0.0267,0.0259,0.0252,0.0325,0.0325,0.0325,0.0325,0,-0.0599,-0.0628,-0.0669,-0.0753,-0.0799,-0.0837,-0.0854,-0.0846,-0.0785,-0.0748,-0.0596,-0.0457,-0.0291,-0.0101,0.0049,0.0191,0.0252,0.03,0.03,0.0285,0.0251,0.0267,0.026,0.0326,0.0326,0.0326,0.0326,0,-0.0623,-0.0666,-0.0727,-0.0793,-0.0855,-0.0885,-0.0896,-0.0846,-0.0812,-0.0686,-0.0634,-0.0443,-0.0322,-0.0115,0.0028,0.0157,0.0185,0.0208,0.0213,0.0214,0.0153,0.0092,0.0143,0,0,0,0,0,-0.0641,-0.0689,-0.076,-0.0827,-0.0887,-0.0913,-0.0924,-0.0912,-0.085,-0.0741,-0.0676,-0.0508,-0.0269,-0.0156,-0.0025,-0.0002,0.0172,0.0149,0.0192,0.0331,0.033,0.0276,0,0,0,0,0,0,-0.0656,-0.0726,-0.076,-0.0833,-0.0878,-0.0929,-0.0934,-0.0898,-0.0815,-0.0733,-0.059,-0.0496,-0.0256,-0.0332,-0.0023,0.0015,0.0053,0.0271,0.0273,0.0332,0.0331,0.033,0.0274,0,0,0,0,0]}]]